Starlink 35454

operational
NORAD ID: 66237 Int'l Des: 2025-245 Owner: SPXS Country: US Constellation: starlink
LEOCIRCULAR

Starlink 35454について

説明を読み込み中...

リアルタイム位置

3D地球を読み込み中...

次回通過

高度履歴

Altitude vs Time

uPlot chart will show altitude changes over time

軌道要素

1 66237C 25245C 25303.08034722 .00474330 00000+0 75018-3 0 3034
2 66237 53.1599 182.3161 0005232 302.2687 162.1411 16.02598011 10
Epoch: Oct 30, 2025 • Age: 27 hours

現在のステータス

高度 271.9 km
速度 7.75 km/s
衛星直下点 42.38°N, 137.32°W
打ち上げ日 Oct 29, 2025
運用期間 2 days
タイプ internet

技術仕様

分類 Payload
質量 575.00 kg
乾燥質量 530.00 kg
総質量 575.00 kg
長さ 0.30 m
直径 4.10 m
スパン 29.00 m
形状 Box + pan
製造者 SPXS
バスタイプ Starlink V2MO
フェーズステータス In Orbit
所有者/国 SPXS/US

大規模コンステレーション

Loading constellations...